STARLINK-2540 (48290 NORAD) Tracking and Keplerian Element Data

This shows tracking and keplerian element data for the satellite.

Feedback or suggestion? Click here.




ElementValue
Catalog48290
NameSTARLINK-2540
Epoch Orbit197
Epoch Day173.83334491
Epoch Year2021
RAAN257.2637
Inclination53.0519
Eccentricity0.00017
Argument of Perigee40.7848
Mean Anonmoly336.3375
Mean Motion15.72890904
Decay Rate0.00516733
L11 48290U 21036Q 21173.83334491 .00516733 00000-0 35097-2 0 9995
L22 48290 53.0519 257.2637 0001700 40.7848 336.3375 15.72890904 1971

Live tracking and technical data element details for STARLINK-2540 (NORAD 48290). STARLINK-2540 can be tracked NOW for your location showing map with azimuth and elevation plus other details from your city location.

Track the satellite on the map from your city or location and see movement details for azimuth, elevation, latitude, longitude, range, height, and movement on the map or in text.







IsCatalogInMostPopularTable: catalog: 48290, numindb: 19
Update: records affected: 1



GetName: 48290 STARLINK-2540

Hit Count: updated at: Thu, 24 Jun 2021 03:14:46 GMT